Regional Weather Roundup
Issued by NWS Green Bay, WI

Home | Current Version | Previous Version | Text Only | Print | Product List | Glossary On
Versions: 1 2 3 4 5 6 7 8 9 10 11 12 13 14 15 16 17 18 19 20 21 22 23 24 25 26 27 28 29 30 31 32 33 34 35 36 37 38 39 40 41 42 43 44 45 46 47 48 49 50
000
ASUS43 KGRB 011610
RWRGRB

NORTH-CENTRAL AND NORTHEAST WISCONSIN REGIONAL WEATHER ROUNDUP
NATIONAL WEATHER SERVICE GREEN BAY WI
1100 AM CDT WED OCT 01 2014

WIZ005-009-010>012-018-019-011700-
NORTH CENTRAL WISCONSIN

CITY           SKY/WX    TMP DP  RH WIND       PRES   REMARKS
IRONWOOD       NOT AVBL
MANITOWISH WTR CLOUDY    50  45  82 SE12      29.94F
ARBOR VITAE    CLOUDY    52  47  84 S13G18    29.95F
EAGLE RIVER    CLOUDY    48  44  84 SE10G18   29.97F
LAND O LAKES   CLOUDY    49  44  81 S12G17    29.97F
RHINELANDER    CLOUDY    48  45  89 S9        29.98F
PHILLIPS       CLOUDY    49  45  85 SE10      29.92F
ANTIGO         CLOUDY    51  48  90 SE12      29.98F
TOMAHAWK       CLOUDY    50  46  83 SE7       29.97F
MERRILL        CLOUDY    52  47  83 S8        29.97F
$$

WIZ013-073-011700-
NORTHEAST WISCONSIN

CITY           SKY/WX    TMP DP  RH WIND       PRES   REMARKS
IRON MOUNTAIN  CLOUDY    51  49  92 S8        30.00F FOG
MARINETTE      NOT AVBL
OCONTO         CLOUDY    53  53 100 SE7       30.02F
$$

WIZ017-030-035>037-045-011700-
CENTRAL WISCONSIN

CITY           SKY/WX    TMP DP  RH WIND       PRES   REMARKS
MEDFORD        CLOUDY    50  46  84 SE12G17   29.94F
WAUSAU         CLOUDY    53  48  83 S13       29.96F
MOSINEE        CLOUDY    54  50  87 SE9       29.97F
MARSHFIELD     CLOUDY    53  47  79 SE13      29.94F
WISC RAPIDS    PTSUNNY   56  48  74 SE12      29.96F
STEVENS POINT  CLOUDY    53  47  79 SE10G16   29.97F
WAUPACA        PTSUNNY   60  50  70 SE9       29.98F
SHAWANO        CLOUDY    56  51  83 SE6       30.00F
CLINTONVILLE   CLOUDY    55  50  82 SE9       29.99F
$$

WIZ038-039-048-051-011700-
FOX VALLEY

CITY           SKY/WX    TMP DP  RH WIND       PRES   REMARKS
NWS GREEN BAY  CLOUDY    57  53  86 SE8       30.01F
APPLETON       CLOUDY    57  52  82 SE10      30.00F
OSHKOSH        MOSUNNY   61  51  70 S10G22    29.98F
FOND DU LAC    MOSUNNY   61  50  67 SE15      29.99F
$$

WIZ022-050-052-011700-
EAST CENTRAL WISCONSIN

CITY           SKY/WX    TMP DP  RH WIND       PRES   REMARKS
STURGEON BAY   NOT AVBL
MANITOWOC      NOT AVBL
SHEBOYGAN      NOT AVBL
$$

LMZ563-521-522-541>543-011700-
LAKESHORE

STATION/POSITION TIME  TEMP    WIND        PRES    VSBY  WAVE
                       AIR SEA DIR/SP/G                  HT/PER
                 (UTC) (F)     (DEG/KT/KT) (MB)    (MI)  (FT/S)
SHEBOYGAN LKSHOR 1600   56 54  140/ 14/ 15 1016.8F
KEWAUNEE LKSHORE 1600   53     150/ 11/ 14 1016.4F
TWO RIVERS CG    1500   54                 1016.5      6   1
NORTHPORT PIER   1600   56     140/  8/ 11 1017.6R
N MID LAKE BUOY  1600   55 58  170/  6/  8 1018.0S         1/ 3
SISTER BAY LKSHO 1500          200/ 12/ 14   N/A
CHAMBERS ISLAND  1600   55     130/  4/  8 1017.6R
MENOMINEE LKSHOR 1600   55     150/  9/ 13 1017.6R
$$



USA.gov is the U.S. government's official web portal to all federal, state and local government web resources and services.